[[{"header":{"parameterUnit":"m.s-1","parameterCategory":1,"la1":30.2991,"la2":30.254,"lo1":-89.0895,"lo2":-89.0444,"dy":0.0017,"dx":0.0017,"nx":28,"ny":28,"refTime":"2024-07-28T21:00:00:Z","depth":0,"parameterNumber":2,"parameterNumberName":"U-component_of_WINDS"},"data":[0,0,0,0,0,0,0,0,0,0,0,0,0,0,0,0,0,0,0,0,0,0,0,0,0,0,0,0,0,0,0,0,0,0,0,0,0,0,0,0,0,0,0,0,0,0,0,0,0,0,0,0,0,0,0,0,0,0,2.8111,2.8112,0,2.8208,2.8209,2.821,2.8223,2.8222,2.8221,2.822,2.8323,2.8326,2.833,0,0,0,0,0,0,0,0,0,0,0,0,0,2.794,2.7943,2.8111,2.8112,2.8113,2.8208,2.8209,2.821,2.8223,2.8222,2.8221,2.8219,2.8322,2.8326,2.833,0,0,0,0,0,0,0,0,0,0,0,0,0,2.8023,2.7944,2.811,2.8131,2.8133,2.8207,2.8209,2.8211,2.8223,2.8222,2.822,2.8219,2.832,2.8326,2.8331,2.8393,0,0,2.8348,2.835,0,0,0,0,0,0,0,0,2.8018,2.8029,2.8126,2.8129,2.8133,2.8202,2.8187,2.8272,2.8223,2.8189,2.822,2.8218,2.8284,2.8292,2.8314,2.8398,2.8402,2.8348,2.8351,2.8354,2.8355,0,0,0,0,0,0,0,2.8013,2.8025,2.8149,2.8128,2.8132,2.8136,2.8146,2.8203,2.8243,2.8192,2.8193,2.8204,2.8285,2.8308,2.8316,2.8403,2.8348,2.8353,2.8356,2.8358,2.8544,2.8546,0,0,0,0,0,0,2.8003,2.802,2.8146,2.8152,2.8071,2.814,2.8152,2.8181,2.8243,2.8251,2.8205,2.8205,2.83,2.831,2.832,2.8397,2.8354,2.8359,2.8362,2.8543,2.8545,2.8547,0,0,0,0,0,0,2.7999,2.8014,2.8142,2.8087,2.8103,2.8145,2.8177,2.8184,2.8207,2.8253,2.8261,2.8221,2.8299,2.8312,2.8375,2.8401,2.8361,2.8366,2.8541,2.8543,2.8546,2.8551,0,0,0,0,0,0,2.7994,2.8012,2.8035,2.8087,2.8106,2.8194,2.8179,2.8187,2.8216,2.8215,2.827,2.8277,2.8299,2.8366,2.838,2.8408,2.837,2.8539,2.8542,2.8545,2.8549,2.8554,2.8558,0,0,0,0,0,2.7988,2.8033,2.8036,2.8051,2.8135,2.8195,2.8207,2.8229,2.8218,2.8242,2.8272,2.8276,2.8396,2.8373,2.8388,2.8418,2.8537,2.8541,2.8545,2.8547,2.8553,2.8558,0,0,0,0,0,0,2.7984,2.804,2.8044,2.8108,2.8147,2.8197,2.8228,2.8235,2.8279,2.8277,2.8304,2.8317,2.8378,2.8404,2.8378,2.8481,2.8465,2.8473,2.8462,2.8468,2.8472,2.8465,2.8375,0,0,0,0,0,2.7991,2.8034,2.8081,2.8132,2.8152,2.8187,2.8214,2.8228,2.827,2.8287,2.8321,2.8363,2.841,2.844,2.8486,2.8553,2.8566,2.8581,2.8585,2.8589,2.8595,2.8633,2.8641,2.8559,2.8559,2.8559,0,0,2.8005,2.8041,2.8066,2.8133,2.8164,2.8209,2.82,2.8248,2.8282,2.8294,2.8355,2.8382,2.843,2.8495,2.8526,2.8519,2.862,2.8593,2.8596,2.86,2.8638,2.8645,2.8652,2.8562,2.8561,2.8561,0,0,2.8054,2.8085,2.8131,2.8163,2.8211,2.8235,2.8246,2.8296,2.8314,2.8375,2.8385,2.8427,2.8507,2.8542,2.857,2.8632,2.8638,2.8647,2.867,2.8707,2.8713,2.8719,2.8742,2.875,2.8652,2.8652,2.8652,0,2.8065,2.8132,2.8155,2.8203,2.8232,2.8244,2.8292,2.8323,2.8384,2.8404,2.8396,2.8497,2.8531,2.8604,2.862,2.8642,2.8656,2.8641,2.871,2.8716,2.8722,2.8745,2.8753,2.8653,2.8653,2.8653,2.8653,0,2.8145,2.8191,2.8224,2.8281,2.8314,2.8362,2.8393,2.8424,2.8436,2.846,2.8524,2.8564,2.8619,2.8637,2.8649,2.8713,2.8708,2.8704,2.8689,2.873,2.8752,2.8761,2.8654,2.8654,2.8654,2.8653,0,0,2.8194,2.8264,2.8275,2.8302,2.8356,2.8393,2.8442,2.8495,2.8521,2.8563,2.8606,2.8674,2.8672,2.8703,2.872,2.8752,2.88,2.8745,2.8747,2.8754,2.8874,2.8876,2.8886,2.8804,2.8806,2.8808,2.887,0,2.8249,2.8336,2.8358,2.8432,2.8476,2.8488,2.8531,2.857,2.8594,2.8636,2.8664,2.8712,2.8704,2.8724,2.8757,2.8787,2.8825,2.8783,2.8846,2.8848,2.8833,2.8897,2.8899,2.8956,2.8879,2.888,2.8881,0,2.8325,2.8368,2.8446,2.8495,2.8515,2.8553,2.8603,2.8643,2.8688,2.8703,2.8739,2.8752,2.8805,2.8787,2.8861,2.8832,2.8859,2.8879,2.8881,2.8888,2.8867,2.8906,2.8975,2.8984,2.8895,2.8894,2.8893,0,2.8354,2.8431,2.8488,2.8511,2.8569,2.8596,2.8622,2.8665,2.8696,2.874,2.8761,2.8811,2.8839,2.8879,2.8906,2.889,2.8978,2.8962,2.8994,2.8993,2.9012,2.901,2.9087,2.9029,2.9029,2.9028,2.9028,0,2.8414,2.8461,2.8502,2.8537,2.8591,2.8617,2.867,2.8697,2.8735,2.8777,2.8791,2.883,2.8863,2.8907,2.8929,2.8988,2.9,2.9015,2.9021,2.9014,2.9012,2.9033,2.9029,2.9031,2.903,2.903,2.9029,0,2.8455,2.8484,2.8547,2.8597,2.8611,2.8649,2.8693,2.8728,2.8753,2.8805,2.8819,2.8859,2.8912,2.8943,2.9009,2.9024,2.9089,2.9093,2.9074,2.9076,2.9106,2.9103,2.9198,2.9213,2.9145,2.9145,2.9146,0,2.8491,2.8528,2.8582,2.861,2.8637,2.8682,2.8713,2.874,2.8772,2.8827,2.8856,2.8909,2.8953,2.9036,2.9072,2.9123,2.9128,2.9158,2.9136,2.9129,2.913,2.9127,2.9131,2.9162,2.9163,2.9163,2.9164,0,2.8553,2.8565,2.8609,2.8658,2.8694,2.8734,2.8774,2.8797,2.8832,2.8867,2.892,2.8954,2.9022,2.9075,2.9129,2.9158,2.9167,2.917,2.918,2.9174,2.9162,2.9169,2.9084,2.9168,2.9167,2.9167,2.9167,2.9167,2.8593,2.8627,2.867,2.8719,2.8751,2.8789,2.8824,2.8854,2.8898,2.8955,2.8968,2.9025,2.907,2.9144,2.9173,2.9219,2.9214,2.9229,2.9232,2.9236,2.9237,2.9154,2.9229,2.9229,2.9229,2.9229,2.9229,0,2.8656,2.8685,2.8729,2.8784,2.8822,2.8827,2.8871,2.8904,2.8952,2.8993,2.9036,2.9098,2.915,2.9189,2.9243,2.9272,2.9277,2.9285,2.9283,2.929,2.9238,2.9224,2.9279,2.9279,2.9279,2.9279,2.9279,2.9279,2.8693,2.875,2.8768,2.8842,2.8871,2.8925,2.8951,2.8986,2.9018,2.9086,2.9129,2.9154,2.9195,2.9252,2.93,2.931,2.933,2.9337,2.9348,2.9299,2.9293,2.9288,2.9275,2.934,2.934,2.9396,2.9397,2.9397]},{"header":{"parameterUnit":"m.s-1","parameterCategory":1,"la1":30.2991,"la2":30.254,"lo1":-89.0895,"lo2":-89.0444,"dy":0.0017,"dx":0.0017,"nx":28,"ny":28,"refTime":"2024-07-28T21:00:00:Z","depth":0,"parameterNumber":3,"parameterNumberName":"V-component_of_WINDS"},"data":[0,0,0,0,0,0,0,0,0,0,0,0,0,0,0,0,0,0,0,0,0,0,0,0,0,0,0,0,0,0,0,0,0,0,0,0,0,0,0,0,0,0,0,0,0,0,0,0,0,0,0,0,0,0,0,0,0,0,0.2488,0.2487,0,0.2445,0.2445,0.2444,0.2424,0.2424,0.2424,0.2424,0.2379,0.2377,0.2376,0,0,0,0,0,0,0,0,0,0,0,0,0,0.255,0.2549,0.2488,0.2487,0.2487,0.2445,0.2445,0.2444,0.2424,0.2424,0.2424,0.2424,0.2379,0.2378,0.2376,0,0,0,0,0,0,0,0,0,0,0,0,0,0.2517,0.2549,0.2488,0.2472,0.247,0.2445,0.2445,0.2444,0.2424,0.2424,0.2424,0.2424,0.238,0.2378,0.2376,0.2364,0,0,0.237,0.237,0,0,0,0,0,0,0,0,0.2519,0.2515,0.2475,0.2473,0.2471,0.244,0.245,0.2417,0.2424,0.2441,0.2424,0.2424,0.2399,0.2395,0.2387,0.2362,0.236,0.237,0.2369,0.2368,0.2368,0,0,0,0,0,0,0,0.2521,0.2516,0.2471,0.2474,0.2472,0.2466,0.2461,0.2444,0.242,0.244,0.2438,0.2433,0.2398,0.2389,0.2386,0.2359,0.237,0.2369,0.2367,0.2367,0.232,0.232,0,0,0,0,0,0,0.2526,0.2518,0.2472,0.247,0.2495,0.2465,0.246,0.245,0.242,0.2416,0.2433,0.2433,0.2392,0.2388,0.2384,0.2368,0.2368,0.2367,0.2366,0.2321,0.232,0.232,0,0,0,0,0,0,0.2528,0.2522,0.2474,0.2494,0.2487,0.2464,0.2453,0.2449,0.244,0.2416,0.2411,0.2429,0.2392,0.2387,0.2369,0.2366,0.2366,0.2364,0.2321,0.2321,0.232,0.2335,0,0,0,0,0,0,0.253,0.2523,0.2519,0.2494,0.2486,0.246,0.2453,0.2448,0.2437,0.2436,0.241,0.2406,0.2392,0.2372,0.2367,0.2363,0.2363,0.2321,0.2321,0.232,0.2334,0.2335,0.2335,0,0,0,0,0,0.2532,0.2524,0.2519,0.2513,0.248,0.246,0.2455,0.2439,0.2437,0.2432,0.2416,0.2407,0.2367,0.237,0.2365,0.236,0.2321,0.2321,0.232,0.2334,0.2335,0.2335,0,0,0,0,0,0,0.255,0.2521,0.2514,0.2498,0.2482,0.2456,0.245,0.2441,0.2424,0.2423,0.2404,0.2398,0.2382,0.2369,0.2373,0.2346,0.2343,0.2342,0.2355,0.2356,0.2356,0.2359,0.2361,0,0,0,0,0,0.2552,0.2538,0.2514,0.2502,0.2494,0.2473,0.2464,0.2453,0.2435,0.2427,0.241,0.2392,0.2376,0.2365,0.2348,0.2332,0.2326,0.2327,0.2327,0.2328,0.2327,0.2316,0.2316,0.2319,0.2319,0.2319,0,0,0.2556,0.2539,0.2531,0.2505,0.2491,0.2476,0.2468,0.2453,0.2442,0.2425,0.2407,0.2394,0.2372,0.2355,0.2347,0.2344,0.2324,0.2327,0.2328,0.2326,0.2316,0.2315,0.2315,0.2319,0.2319,0.2319,0,0,0.2556,0.2542,0.253,0.2516,0.2495,0.2481,0.2478,0.2454,0.2444,0.2426,0.2413,0.2399,0.2371,0.2356,0.2345,0.2338,0.2329,0.2333,0.2336,0.2326,0.2326,0.2326,0.2322,0.2322,0.2332,0.2332,0.2332,0,0.2564,0.2542,0.2525,0.2511,0.25,0.2484,0.2471,0.2458,0.2433,0.2425,0.2422,0.2386,0.2371,0.2349,0.2348,0.2339,0.2335,0.2336,0.2327,0.2327,0.2326,0.2323,0.2322,0.2333,0.2333,0.2333,0.2333,0,0.2552,0.2537,0.253,0.2506,0.2493,0.248,0.2461,0.245,0.244,0.2426,0.2407,0.2388,0.2367,0.2361,0.2351,0.2338,0.2337,0.2331,0.2327,0.2327,0.2323,0.2322,0.2334,0.2334,0.2334,0.2333,0,0,0.2562,0.2528,0.2526,0.2514,0.2489,0.2477,0.2462,0.2442,0.2433,0.2415,0.2402,0.2378,0.2373,0.236,0.2348,0.234,0.2334,0.2335,0.2334,0.2335,0.2318,0.2321,0.232,0.2328,0.2328,0.2328,0.2319,0,0.2558,0.2532,0.2517,0.2497,0.2482,0.2467,0.2454,0.2437,0.2423,0.2408,0.2393,0.2376,0.2371,0.2363,0.2354,0.2337,0.2331,0.2338,0.2315,0.2314,0.232,0.2319,0.2323,0.2316,0.2318,0.2317,0.2317,0,0.255,0.2533,0.2512,0.2488,0.2481,0.247,0.2449,0.2435,0.2415,0.2406,0.2391,0.2379,0.2362,0.236,0.2336,0.2341,0.2331,0.2321,0.2321,0.2318,0.2315,0.2315,0.2313,0.2312,0.2315,0.2315,0.2315,0,0.2559,0.2531,0.2514,0.2504,0.2476,0.2468,0.2456,0.2436,0.2424,0.2406,0.2398,0.2378,0.2367,0.2351,0.2334,0.2334,0.2311,0.2308,0.2302,0.2303,0.2298,0.2299,0.2294,0.2293,0.2293,0.2293,0.2293,0,0.2556,0.2543,0.2517,0.2507,0.2492,0.2474,0.2459,0.2445,0.2427,0.2414,0.2399,0.2386,0.2364,0.2348,0.2334,0.2316,0.2311,0.2303,0.2299,0.2304,0.2305,0.2296,0.2296,0.2292,0.2292,0.2292,0.2292,0,0.2563,0.2545,0.2526,0.25,0.2493,0.2483,0.2461,0.245,0.2436,0.2418,0.2413,0.239,0.2371,0.2352,0.2326,0.2316,0.2298,0.2294,0.2305,0.2303,0.2298,0.2299,0.2288,0.2285,0.2286,0.2286,0.2286,0,0.2562,0.2552,0.2525,0.2515,0.2503,0.2487,0.2475,0.2456,0.2444,0.2419,0.2411,0.2391,0.2373,0.2343,0.2323,0.2303,0.2297,0.2295,0.2294,0.2299,0.2296,0.2297,0.2295,0.2295,0.2296,0.2296,0.2296,0,0.2562,0.2553,0.2537,0.2517,0.2503,0.2486,0.2469,0.2461,0.2439,0.2426,0.2406,0.2393,0.2366,0.2345,0.2323,0.2309,0.2298,0.2296,0.2294,0.2298,0.2305,0.23,0.2306,0.2296,0.2296,0.2296,0.2296,0.2296,0.2564,0.2554,0.2534,0.2515,0.25,0.2484,0.2472,0.2457,0.244,0.2417,0.2406,0.2386,0.2365,0.2333,0.232,0.2303,0.23,0.2297,0.2296,0.2295,0.2296,0.2308,0.2299,0.2299,0.2299,0.2299,0.2299,0,0.2563,0.2548,0.2532,0.2508,0.2494,0.2485,0.2465,0.2454,0.2436,0.2417,0.24,0.2377,0.2357,0.2336,0.2314,0.2305,0.2299,0.23,0.23,0.2297,0.23,0.2304,0.2304,0.2304,0.2304,0.2304,0.2304,0.2304,0.256,0.2542,0.2531,0.2505,0.2491,0.2471,0.2461,0.2445,0.243,0.2405,0.2388,0.2375,0.2355,0.2331,0.2312,0.2306,0.2299,0.2301,0.2293,0.2297,0.2296,0.2296,0.23,0.2299,0.2299,0.2291,0.2291,0.2291]}]]